[[{"header":{"parameterUnit":"m.s-1","parameterCategory":2,"la1":30.2991,"la2":30.254,"lo1":-89.0895,"lo2":-89.0444,"dy":0.0017,"dx":0.0017,"nx":28,"ny":28,"refTime":"2024-06-14T21:00:00:Z","depth":"0","parameterNumber":2,"parameterNumberName":"U-component_of_CURRENTS"},"data":[0,0,0,0,0,0,0,0,0,0,0,0,0,0,0,0,0,0,0,0,0,0,0,0,0,0,0,0,0,0,0,0,0,0,0,0,0,0,0,0,0,0,0,0,0,0,0,0,0,0,0,0,0,0,0,0,0,0,-0.2144,-0.2144,0,-0.2137,-0.2137,-0.2137,-0.2086,-0.2085,-0.2084,-0.2083,-0.2053,-0.2054,-0.2054,0,0,0,0,0,0,0,0,0,0,0,0,0,-0.2099,-0.21,-0.2144,-0.2144,-0.2144,-0.2137,-0.2137,-0.2137,-0.2086,-0.2085,-0.2083,-0.2082,-0.2053,-0.2053,-0.2054,0,0,0,0,0,0,0,0,0,0,0,0,0,-0.2107,-0.21,-0.2144,-0.2119,-0.2117,-0.2137,-0.2137,-0.2137,-0.2086,-0.2085,-0.2083,-0.2081,-0.2053,-0.2053,-0.2054,-0.209,0,0,-0.2055,-0.2055,0,0,0,0,0,0,0,0,-0.2107,-0.2108,-0.2123,-0.2121,-0.2118,-0.2112,-0.211,-0.2121,-0.2087,-0.2097,-0.2083,-0.2081,-0.2073,-0.2072,-0.2072,-0.2089,-0.2088,-0.2055,-0.2055,-0.2056,-0.2056,0,0,0,0,0,0,0,-0.2106,-0.2108,-0.214,-0.2123,-0.212,-0.2103,-0.2103,-0.2112,-0.2093,-0.2096,-0.2092,-0.2094,-0.2071,-0.2072,-0.2071,-0.2087,-0.2055,-0.2055,-0.2056,-0.2056,-0.2118,-0.2119,0,0,0,0,0,0,-0.2113,-0.2108,-0.214,-0.214,-0.211,-0.2106,-0.2105,-0.2115,-0.2093,-0.2089,-0.2096,-0.2092,-0.2072,-0.2071,-0.207,-0.2095,-0.2056,-0.2056,-0.2056,-0.2117,-0.2118,-0.212,0,0,0,0,0,0,-0.2112,-0.2116,-0.2141,-0.2124,-0.2126,-0.2109,-0.212,-0.2115,-0.2117,-0.2094,-0.2088,-0.2101,-0.2071,-0.207,-0.2081,-0.2094,-0.2056,-0.2056,-0.2115,-0.2117,-0.2119,-0.2155,0,0,0,0,0,0,-0.2111,-0.2116,-0.2129,-0.2125,-0.2128,-0.2169,-0.2122,-0.2117,-0.2121,-0.2116,-0.2097,-0.2092,-0.207,-0.2081,-0.2081,-0.2093,-0.2057,-0.2113,-0.2116,-0.2118,-0.2152,-0.2158,-0.2163,0,0,0,0,0,-0.2109,-0.2146,-0.213,-0.2134,-0.2145,-0.2171,-0.2172,-0.2151,-0.2123,-0.2141,-0.2117,-0.2093,-0.2098,-0.2083,-0.2083,-0.2095,-0.2112,-0.2115,-0.2118,-0.2149,-0.2157,-0.2163,0,0,0,0,0,0,-0.2139,-0.2144,-0.2126,-0.2162,-0.2169,-0.2163,-0.2176,-0.2162,-0.2158,-0.2147,-0.2114,-0.211,-0.2125,-0.2115,-0.2099,-0.2123,-0.21,-0.2104,-0.2124,-0.2131,-0.2136,-0.2135,-0.2057,0,0,0,0,0,-0.215,-0.2171,-0.2173,-0.2199,-0.2203,-0.2189,-0.2195,-0.2186,-0.218,-0.2176,-0.2161,-0.2146,-0.2142,-0.2138,-0.214,-0.2158,-0.2141,-0.2167,-0.2173,-0.2178,-0.2179,-0.2161,-0.2164,-0.213,-0.213,-0.213,0,0,-0.217,-0.2173,-0.2185,-0.2206,-0.2201,-0.2218,-0.2189,-0.2209,-0.2216,-0.2176,-0.2183,-0.2172,-0.2154,-0.2167,-0.2173,-0.2156,-0.2182,-0.2182,-0.2185,-0.2184,-0.2164,-0.2167,-0.217,-0.2132,-0.2132,-0.2132,0,0,-0.2216,-0.2219,-0.2246,-0.2255,-0.226,-0.2253,-0.2262,-0.2264,-0.2255,-0.2271,-0.2236,-0.2231,-0.2235,-0.2215,-0.2205,-0.2249,-0.2217,-0.2255,-0.2274,-0.2257,-0.2259,-0.226,-0.2254,-0.2254,-0.2251,-0.2251,-0.2251,0,-0.2236,-0.2265,-0.2262,-0.2285,-0.2289,-0.2269,-0.2294,-0.2293,-0.2298,-0.2292,-0.228,-0.2267,-0.2253,-0.2247,-0.2257,-0.2259,-0.2249,-0.2245,-0.2262,-0.2263,-0.2264,-0.2256,-0.2256,-0.2253,-0.2253,-0.2253,-0.2253,0,-0.2294,-0.2315,-0.2334,-0.2343,-0.2354,-0.2378,-0.2369,-0.2377,-0.2359,-0.2348,-0.2349,-0.2329,-0.2313,-0.2314,-0.2297,-0.2299,-0.2292,-0.2273,-0.2238,-0.2269,-0.226,-0.2259,-0.2256,-0.2256,-0.2255,-0.2254,0,0,-0.2329,-0.2369,-0.2369,-0.2378,-0.2384,-0.24,-0.2409,-0.2412,-0.241,-0.2406,-0.2399,-0.2391,-0.2369,-0.2359,-0.2337,-0.2322,-0.2322,-0.2304,-0.2302,-0.2287,-0.2293,-0.2265,-0.2261,-0.2303,-0.2303,-0.2303,-0.2288,0,-0.2365,-0.2424,-0.2427,-0.2461,-0.2482,-0.2464,-0.2475,-0.2471,-0.2456,-0.2451,-0.2417,-0.2412,-0.2388,-0.2381,-0.2362,-0.2331,-0.2321,-0.2329,-0.2275,-0.2274,-0.2235,-0.2259,-0.2244,-0.2227,-0.2287,-0.2287,-0.2287,0,-0.2399,-0.2433,-0.2485,-0.2509,-0.2515,-0.2531,-0.2525,-0.2534,-0.2513,-0.2504,-0.2479,-0.2453,-0.2428,-0.2407,-0.2359,-0.2365,-0.2339,-0.2314,-0.2312,-0.227,-0.2244,-0.2206,-0.2223,-0.2185,-0.2286,-0.2286,-0.2286,0,-0.2403,-0.246,-0.2501,-0.2511,-0.2544,-0.2552,-0.2558,-0.2546,-0.2541,-0.2531,-0.2518,-0.2489,-0.246,-0.2427,-0.2365,-0.2368,-0.231,-0.2303,-0.2255,-0.2253,-0.2221,-0.2216,-0.2184,-0.2279,-0.2279,-0.228,-0.228,0,-0.2424,-0.2444,-0.251,-0.2527,-0.2556,-0.2573,-0.2581,-0.2583,-0.2576,-0.2559,-0.2541,-0.2516,-0.2462,-0.2413,-0.2375,-0.2304,-0.2313,-0.2263,-0.2245,-0.2236,-0.2233,-0.2182,-0.2163,-0.2279,-0.2279,-0.2279,-0.2279,0,-0.239,-0.2447,-0.2482,-0.254,-0.2555,-0.2565,-0.258,-0.2577,-0.2589,-0.2563,-0.2559,-0.2525,-0.2469,-0.241,-0.2347,-0.2305,-0.2222,-0.2228,-0.2225,-0.2207,-0.2135,-0.2119,-0.203,-0.2035,-0.2187,-0.2187,-0.2186,0,-0.2367,-0.2392,-0.2469,-0.2486,-0.2505,-0.253,-0.2533,-0.2566,-0.2557,-0.2557,-0.2534,-0.2496,-0.2454,-0.2358,-0.2292,-0.2228,-0.218,-0.216,-0.2162,-0.2131,-0.21,-0.2062,-0.2071,-0.2144,-0.2143,-0.2142,-0.2141,0,-0.2293,-0.233,-0.2364,-0.2424,-0.2445,-0.2467,-0.2482,-0.2487,-0.2512,-0.2505,-0.2491,-0.2478,-0.2409,-0.233,-0.2242,-0.2197,-0.2124,-0.2141,-0.2105,-0.2062,-0.202,-0.2016,-0.2163,-0.2134,-0.2135,-0.2135,-0.2136,-0.2136,-0.2203,-0.2216,-0.2282,-0.2319,-0.2363,-0.239,-0.2367,-0.2404,-0.2405,-0.238,-0.2412,-0.2363,-0.2325,-0.2217,-0.2171,-0.2076,-0.2079,-0.2021,-0.2006,-0.1971,-0.1966,-0.2101,-0.2048,-0.2049,-0.2049,-0.2049,-0.2049,0,-0.2069,-0.2116,-0.2163,-0.222,-0.2239,-0.2296,-0.2306,-0.2259,-0.2239,-0.2262,-0.2245,-0.2201,-0.215,-0.211,-0.203,-0.1952,-0.1947,-0.1891,-0.1846,-0.1868,-0.1985,-0.1974,-0.1906,-0.1906,-0.1906,-0.1906,-0.1906,-0.1907,-0.2004,-0.2007,-0.2055,-0.2073,-0.2113,-0.2069,-0.2054,-0.2015,-0.1993,-0.1923,-0.1908,-0.1889,-0.1843,-0.1896,-0.1842,-0.1824,-0.1783,-0.172,-0.1734,-0.1822,-0.1834,-0.1845,-0.1831,-0.1734,-0.1733,-0.1623,-0.1622,-0.1621]},{"header":{"parameterUnit":"m.s-1","parameterCategory":2,"la1":30.2991,"la2":30.254,"lo1":-89.0895,"lo2":-89.0444,"dy":0.0017,"dx":0.0017,"nx":28,"ny":28,"refTime":"2024-06-14T21:00:00:Z","depth":"0","parameterNumber":3,"parameterNumberName":"V-component_of_CURRENTS"},"data":[0,0,0,0,0,0,0,0,0,0,0,0,0,0,0,0,0,0,0,0,0,0,0,0,0,0,0,0,0,0,0,0,0,0,0,0,0,0,0,0,0,0,0,0,0,0,0,0,0,0,0,0,0,0,0,0,0,0,-0.0521,-0.0522,0,-0.0612,-0.0612,-0.0613,-0.0633,-0.0633,-0.0633,-0.0632,-0.0653,-0.0654,-0.0655,0,0,0,0,0,0,0,0,0,0,0,0,0,-0.0468,-0.0468,-0.0521,-0.0522,-0.0524,-0.0611,-0.0612,-0.0613,-0.0634,-0.0633,-0.0633,-0.0632,-0.0653,-0.0654,-0.0655,0,0,0,0,0,0,0,0,0,0,0,0,0,-0.0515,-0.0468,-0.0521,-0.0546,-0.055,-0.0611,-0.0612,-0.0614,-0.0634,-0.0633,-0.0632,-0.0632,-0.0652,-0.0654,-0.0655,-0.0675,0,0,-0.0659,-0.066,0,0,0,0,0,0,0,0,-0.0512,-0.0516,-0.0541,-0.0545,-0.0549,-0.0613,-0.0602,-0.0632,-0.0634,-0.0599,-0.0632,-0.0632,-0.0635,-0.0638,-0.0653,-0.0676,-0.0677,-0.0659,-0.066,-0.0661,-0.0661,0,0,0,0,0,0,0,-0.0509,-0.0513,-0.0554,-0.0543,-0.0547,-0.0589,-0.0594,-0.0608,-0.0616,-0.0602,-0.0604,-0.0619,-0.0636,-0.0652,-0.0654,-0.0677,-0.0659,-0.066,-0.0661,-0.0662,-0.0702,-0.0702,0,0,0,0,0,0,-0.0498,-0.0509,-0.0551,-0.0557,-0.0532,-0.059,-0.0595,-0.0591,-0.0617,-0.0622,-0.0619,-0.062,-0.065,-0.0652,-0.0655,-0.0672,-0.0661,-0.0662,-0.0663,-0.0702,-0.0702,-0.0702,0,0,0,0,0,0,-0.0496,-0.05,-0.0547,-0.0539,-0.0548,-0.0591,-0.0586,-0.0593,-0.0608,-0.0632,-0.0635,-0.0627,-0.065,-0.0653,-0.0666,-0.0673,-0.0662,-0.0664,-0.0701,-0.0702,-0.0702,-0.0712,0,0,0,0,0,0,-0.0494,-0.0499,-0.0495,-0.0537,-0.0548,-0.058,-0.0587,-0.0595,-0.0619,-0.062,-0.064,-0.0641,-0.0649,-0.0664,-0.0667,-0.0675,-0.0665,-0.0701,-0.0702,-0.0702,-0.0712,-0.0713,-0.0714,0,0,0,0,0,-0.0492,-0.0496,-0.0493,-0.0499,-0.0539,-0.0581,-0.059,-0.0618,-0.062,-0.0628,-0.064,-0.0641,-0.0669,-0.0665,-0.0669,-0.0678,-0.0701,-0.0701,-0.0702,-0.0711,-0.0713,-0.0714,0,0,0,0,0,0,-0.0482,-0.05,-0.0498,-0.0508,-0.0538,-0.0585,-0.0604,-0.0618,-0.0637,-0.0637,-0.0648,-0.0651,-0.0664,-0.0669,-0.0665,-0.069,-0.0684,-0.0685,-0.0689,-0.0691,-0.0692,-0.0694,-0.0666,0,0,0,0,0,-0.0474,-0.0474,-0.0503,-0.0514,-0.0525,-0.0561,-0.0582,-0.0601,-0.0626,-0.0634,-0.0646,-0.0658,-0.0671,-0.0679,-0.069,-0.0707,-0.07,-0.0713,-0.0714,-0.0715,-0.0719,-0.0721,-0.0723,-0.0704,-0.0704,-0.0704,0,0,-0.0479,-0.0487,-0.049,-0.0511,-0.0535,-0.0562,-0.0571,-0.0606,-0.0627,-0.0633,-0.0656,-0.0662,-0.0676,-0.0694,-0.07,-0.0699,-0.0713,-0.0716,-0.0717,-0.072,-0.0722,-0.0724,-0.0725,-0.0704,-0.0704,-0.0704,0,0,-0.0502,-0.0488,-0.0502,-0.0519,-0.0551,-0.0569,-0.0575,-0.0614,-0.0626,-0.065,-0.0658,-0.0669,-0.0689,-0.0704,-0.0714,-0.0729,-0.0718,-0.0728,-0.074,-0.0742,-0.0744,-0.0745,-0.072,-0.0719,-0.0731,-0.0731,-0.0731,0,-0.0508,-0.052,-0.0518,-0.0538,-0.0555,-0.0568,-0.0595,-0.0613,-0.0651,-0.0659,-0.0654,-0.0684,-0.0696,-0.0722,-0.073,-0.0733,-0.0721,-0.0734,-0.0744,-0.0745,-0.0746,-0.072,-0.0719,-0.0732,-0.0732,-0.0732,-0.0732,0,-0.0546,-0.0552,-0.0565,-0.0579,-0.0594,-0.062,-0.0638,-0.065,-0.0656,-0.0672,-0.0688,-0.0703,-0.0719,-0.0725,-0.0736,-0.0754,-0.0737,-0.0743,-0.074,-0.0749,-0.0721,-0.0719,-0.0733,-0.0732,-0.0732,-0.0732,0,0,-0.0564,-0.0586,-0.0589,-0.0597,-0.0615,-0.0633,-0.0652,-0.0675,-0.0683,-0.0701,-0.071,-0.074,-0.0737,-0.0747,-0.0756,-0.0765,-0.0762,-0.076,-0.076,-0.0734,-0.0744,-0.0698,-0.0692,-0.0769,-0.077,-0.077,-0.0714,0,-0.0595,-0.0634,-0.0633,-0.0663,-0.0682,-0.0679,-0.0692,-0.0708,-0.071,-0.0717,-0.0727,-0.0737,-0.0748,-0.075,-0.0763,-0.0763,-0.0762,-0.0776,-0.074,-0.0738,-0.0697,-0.0691,-0.0692,-0.064,-0.0712,-0.0712,-0.0712,0,-0.0633,-0.0648,-0.0686,-0.0693,-0.0699,-0.0712,-0.0714,-0.073,-0.0735,-0.0734,-0.074,-0.0738,-0.0754,-0.0757,-0.0759,-0.0765,-0.0757,-0.0754,-0.0752,-0.0708,-0.0692,-0.0647,-0.0635,-0.0634,-0.071,-0.071,-0.071,0,-0.0652,-0.068,-0.0706,-0.0712,-0.0727,-0.0731,-0.0733,-0.0736,-0.074,-0.0739,-0.0729,-0.0743,-0.0734,-0.0742,-0.0727,-0.0746,-0.071,-0.0734,-0.0681,-0.0676,-0.067,-0.0664,-0.0655,-0.0732,-0.0733,-0.0733,-0.0733,0,-0.0684,-0.0701,-0.0714,-0.0729,-0.0742,-0.0742,-0.0748,-0.0749,-0.0744,-0.074,-0.0736,-0.0724,-0.0731,-0.0708,-0.0713,-0.0675,-0.0693,-0.0677,-0.0663,-0.067,-0.0666,-0.0659,-0.0674,-0.0731,-0.0731,-0.0731,-0.0732,0,-0.0707,-0.0721,-0.0745,-0.0756,-0.0756,-0.0762,-0.0756,-0.0762,-0.0745,-0.0735,-0.0731,-0.0705,-0.0664,-0.0646,-0.0634,-0.0637,-0.0617,-0.06,-0.0589,-0.0576,-0.0545,-0.056,-0.0528,-0.0548,-0.0548,-0.0547,-0.0545,0,-0.0722,-0.0742,-0.076,-0.0772,-0.0777,-0.0781,-0.0786,-0.0771,-0.0768,-0.0722,-0.0717,-0.0659,-0.0618,-0.0554,-0.0545,-0.0514,-0.0539,-0.0498,-0.0549,-0.0534,-0.0542,-0.0553,-0.0575,-0.0536,-0.0535,-0.0534,-0.0533,0,-0.0744,-0.0753,-0.0774,-0.0805,-0.0814,-0.0819,-0.0816,-0.0809,-0.0781,-0.0746,-0.0687,-0.0642,-0.0557,-0.0512,-0.0454,-0.0451,-0.051,-0.0477,-0.0481,-0.0544,-0.0538,-0.0553,-0.0562,-0.0525,-0.0526,-0.0526,-0.0527,-0.0527,-0.0752,-0.0776,-0.0813,-0.0844,-0.0857,-0.0867,-0.0858,-0.0822,-0.0792,-0.0684,-0.0667,-0.0519,-0.0512,-0.0431,-0.042,-0.0397,-0.0436,-0.0422,-0.0442,-0.0453,-0.0479,-0.0447,-0.0385,-0.0385,-0.0385,-0.0385,-0.0385,0,-0.077,-0.0813,-0.0849,-0.0892,-0.0926,-0.0915,-0.0891,-0.0836,-0.0768,-0.0602,-0.0508,-0.036,-0.0382,-0.0347,-0.0365,-0.0373,-0.0414,-0.0379,-0.0421,-0.0449,-0.0433,-0.044,-0.0365,-0.0365,-0.0365,-0.0365,-0.0365,-0.0365,-0.0784,-0.0839,-0.0877,-0.0957,-0.0984,-0.0977,-0.0956,-0.0809,-0.0657,-0.0348,-0.0128,0.0015,0.0014,-0.0237,-0.0321,-0.0349,-0.0401,-0.0387,-0.0415,-0.0426,-0.0433,-0.0439,-0.0449,-0.0377,-0.0377,-0.0443,-0.0444,-0.0444]}],[{"header":{"parameterUnit":"m.s-1","parameterCategory":2,"la1":30.2991,"la2":30.254,"lo1":-89.0895,"lo2":-89.0444,"dy":0.0017,"dx":0.0017,"nx":28,"ny":28,"refTime":"2024-06-14T21:00:00:Z","depth":"2","parameterNumber":2,"parameterNumberName":"U-component_of_CURRENTS"},"data":[0,0,0,0,0,0,0,0,0,0,0,0,0,0,0,0,0,0,0,0,0,0,0,0,0,0,0,0,0,0,0,0,0,0,0,0,0,0,0,0,0,0,0,0,0,0,0,0,0,0,0,0,0,0,0,0,0,0,-0.0674,-0.0673,0,-0.0637,-0.0637,-0.0636,-0.0644,-0.0644,-0.0645,-0.0646,-0.063,-0.0629,-0.0628,0,0,0,0,0,0,0,0,0,0,0,0,0,-0.0636,-0.0638,-0.0674,-0.0673,-0.0673,-0.0637,-0.0637,-0.0636,-0.0644,-0.0644,-0.0645,-0.0646,-0.0631,-0.063,-0.0628,0,0,0,0,0,0,0,0,0,0,0,0,0,-0.0632,-0.0638,-0.0674,-0.0672,-0.0672,-0.0637,-0.0637,-0.0636,-0.0643,-0.0644,-0.0645,-0.0646,-0.0631,-0.063,-0.0628,-0.0598,0,0,-0.0623,-0.0623,0,0,0,0,0,0,0,0,-0.0632,-0.0633,-0.0673,-0.0672,-0.0672,-0.0646,-0.0618,-0.0625,-0.0643,-0.0654,-0.0646,-0.0647,-0.0637,-0.0635,-0.0625,-0.0598,-0.0597,-0.0623,-0.0622,-0.0622,-0.0621,0,0,0,0,0,0,0,-0.0633,-0.0634,-0.0659,-0.0672,-0.0672,-0.0634,-0.0636,-0.0619,-0.0641,-0.0653,-0.0654,-0.0649,-0.0637,-0.0627,-0.0625,-0.0597,-0.0623,-0.0622,-0.0621,-0.062,-0.066,-0.0662,0,0,0,0,0,0,-0.0642,-0.0635,-0.066,-0.0658,-0.0654,-0.0635,-0.0636,-0.0653,-0.064,-0.0639,-0.0649,-0.065,-0.0629,-0.0627,-0.0625,-0.0686,-0.0622,-0.062,-0.0619,-0.0658,-0.066,-0.0663,0,0,0,0,0,0,-0.0642,-0.0646,-0.0662,-0.0644,-0.0644,-0.0635,-0.0653,-0.0652,-0.0672,-0.0637,-0.0636,-0.0673,-0.063,-0.0627,-0.0648,-0.0682,-0.062,-0.0618,-0.0656,-0.0659,-0.0661,-0.0747,0,0,0,0,0,0,-0.0642,-0.0647,-0.0673,-0.0646,-0.0645,-0.0673,-0.0652,-0.0651,-0.0666,-0.0668,-0.0657,-0.0655,-0.063,-0.0651,-0.0647,-0.0679,-0.0617,-0.0653,-0.0657,-0.0661,-0.0742,-0.0752,-0.0762,0,0,0,0,0,-0.0641,-0.0679,-0.0675,-0.0678,-0.068,-0.0674,-0.0671,-0.0666,-0.0666,-0.0686,-0.0683,-0.0657,-0.0672,-0.0651,-0.0646,-0.0678,-0.0651,-0.0656,-0.066,-0.0737,-0.075,-0.0761,0,0,0,0,0,0,-0.0691,-0.0682,-0.0678,-0.0717,-0.0707,-0.0676,-0.07,-0.0684,-0.0694,-0.0708,-0.0674,-0.0672,-0.0702,-0.0682,-0.066,-0.0704,-0.066,-0.0663,-0.072,-0.0732,-0.0742,-0.0749,-0.0616,0,0,0,0,0,-0.0709,-0.073,-0.0713,-0.0745,-0.0752,-0.0729,-0.073,-0.0722,-0.0717,-0.0724,-0.0714,-0.0712,-0.0709,-0.0717,-0.0709,-0.0729,-0.0715,-0.0751,-0.0761,-0.0769,-0.0774,-0.0774,-0.0784,-0.0677,-0.0677,-0.0677,0,0,-0.0729,-0.0733,-0.0742,-0.0755,-0.0755,-0.077,-0.0735,-0.0753,-0.0766,-0.072,-0.0758,-0.0743,-0.0723,-0.0748,-0.0761,-0.0741,-0.08,-0.0775,-0.0782,-0.0782,-0.0779,-0.0789,-0.0798,-0.068,-0.068,-0.0679,0,0,-0.0778,-0.0799,-0.0829,-0.083,-0.0837,-0.0822,-0.0836,-0.0825,-0.0832,-0.0848,-0.0825,-0.0835,-0.0833,-0.0825,-0.0818,-0.0879,-0.0849,-0.0886,-0.0945,-0.0945,-0.0953,-0.096,-0.0986,-0.0994,-0.0896,-0.0896,-0.0896,0,-0.0813,-0.0846,-0.0837,-0.0869,-0.088,-0.0855,-0.0888,-0.0885,-0.0879,-0.0888,-0.0882,-0.0883,-0.0867,-0.0886,-0.0913,-0.09,-0.0905,-0.0898,-0.0957,-0.0963,-0.0969,-0.0993,-0.1001,-0.09,-0.09,-0.0899,-0.0899,0,-0.0866,-0.0904,-0.0931,-0.096,-0.0971,-0.0998,-0.0989,-0.101,-0.1012,-0.0994,-0.102,-0.0994,-0.0996,-0.0996,-0.0973,-0.1011,-0.1005,-0.0965,-0.0923,-0.0985,-0.1006,-0.1013,-0.0907,-0.0905,-0.0904,-0.0903,0,0,-0.0926,-0.0961,-0.0974,-0.1002,-0.1023,-0.1037,-0.1077,-0.1094,-0.1124,-0.1114,-0.1144,-0.1136,-0.1117,-0.1109,-0.1081,-0.1082,-0.1134,-0.1054,-0.1051,-0.1074,-0.1163,-0.1122,-0.1125,-0.1105,-0.1106,-0.1107,-0.1173,0,-0.098,-0.1044,-0.1048,-0.1115,-0.1151,-0.115,-0.1187,-0.1196,-0.1202,-0.1225,-0.1193,-0.121,-0.116,-0.1174,-0.1166,-0.1132,-0.1153,-0.1122,-0.1104,-0.1104,-0.1054,-0.1131,-0.0939,-0.0977,-0.1179,-0.118,-0.1181,0,-0.1036,-0.1071,-0.1139,-0.1195,-0.1216,-0.1253,-0.1312,-0.1334,-0.1347,-0.1354,-0.1352,-0.1322,-0.1323,-0.1272,-0.1254,-0.124,-0.1223,-0.1193,-0.1194,-0.1126,-0.1074,-0.0943,-0.0982,-0.1192,-0.1191,-0.119,-0.1189,0,-0.107,-0.1143,-0.1199,-0.1216,-0.1269,-0.1317,-0.1352,-0.1381,-0.1402,-0.1436,-0.1451,-0.1436,-0.1432,-0.1399,-0.1328,-0.1309,-0.1302,-0.1263,-0.1216,-0.1214,-0.1031,-0.101,-0.1273,-0.1273,-0.1273,-0.1272,-0.1272,0,-0.1118,-0.117,-0.1227,-0.1255,-0.1338,-0.1366,-0.1442,-0.1476,-0.1508,-0.1527,-0.1518,-0.1518,-0.1462,-0.1432,-0.1377,-0.1316,-0.1343,-0.1247,-0.1229,-0.106,-0.1042,-0.1197,-0.1187,-0.1275,-0.1274,-0.1274,-0.1273,0,-0.1141,-0.1176,-0.1243,-0.1318,-0.1353,-0.1411,-0.1489,-0.1525,-0.1568,-0.1595,-0.1609,-0.1592,-0.1557,-0.1495,-0.1443,-0.1377,-0.1324,-0.1299,-0.112,-0.1079,-0.1236,-0.123,-0.128,-0.1279,-0.1278,-0.1278,-0.1277,0,-0.1151,-0.1185,-0.1279,-0.1316,-0.1359,-0.1442,-0.1489,-0.1552,-0.1571,-0.1616,-0.1614,-0.1615,-0.1531,-0.1452,-0.1349,-0.1269,-0.1321,-0.1098,-0.1021,-0.126,-0.1237,-0.1233,-0.1228,-0.0827,-0.0823,-0.0819,-0.0817,0,-0.1166,-0.1204,-0.1247,-0.1306,-0.1373,-0.1438,-0.1506,-0.1522,-0.1573,-0.1568,-0.1538,-0.1479,-0.1408,-0.1198,-0.1128,-0.1065,-0.1092,-0.1029,-0.1311,-0.0856,-0.0838,-0.0814,-0.0823,-0.0786,-0.0789,-0.0791,-0.0793,-0.0794,-0.1169,-0.1185,-0.1225,-0.1268,-0.135,-0.139,-0.1375,-0.1415,-0.1397,-0.1331,-0.1375,-0.1211,-0.1097,-0.086,-0.082,-0.0839,-0.0913,-0.0838,-0.0846,-0.0858,-0.0796,-0.0777,-0.0704,-0.0706,-0.0709,-0.071,-0.0712,0,-0.1136,-0.1134,-0.1175,-0.1203,-0.1227,-0.1322,-0.1335,-0.1245,-0.1152,-0.1157,-0.1063,-0.0773,-0.059,-0.0579,-0.0514,-0.0507,-0.0495,-0.0524,-0.0459,-0.0485,-0.051,-0.043,-0.0242,-0.0241,-0.0241,-0.0241,0,0,-0.111,-0.1101,-0.1086,-0.1052,-0.1094,-0.1068,-0.1047,-0.0926,-0.0863,-0.0719,-0.0626,-0.0534,-0.0491,-0.0324,-0.0291,-0.028,-0.0411,-0.028,-0.0635,-0.0582,-0.0608,-0.0643,-0.0543,0,0,0,0,0]},{"header":{"parameterUnit":"m.s-1","parameterCategory":2,"la1":30.2991,"la2":30.254,"lo1":-89.0895,"lo2":-89.0444,"dy":0.0017,"dx":0.0017,"nx":28,"ny":28,"refTime":"2024-06-14T21:00:00:Z","depth":"2","parameterNumber":3,"parameterNumberName":"V-component_of_CURRENTS"},"data":[0,0,0,0,0,0,0,0,0,0,0,0,0,0,0,0,0,0,0,0,0,0,0,0,0,0,0,0,0,0,0,0,0,0,0,0,0,0,0,0,0,0,0,0,0,0,0,0,0,0,0,0,0,0,0,0,0,0,0.0279,0.0279,0,0.0345,0.0347,0.0348,0.0389,0.0389,0.0388,0.0387,0.0387,0.0387,0.0388,0,0,0,0,0,0,0,0,0,0,0,0,0,0.0279,0.0279,0.0279,0.0279,0.0279,0.0345,0.0347,0.0349,0.0389,0.0388,0.0388,0.0387,0.0387,0.0387,0.0388,0,0,0,0,0,0,0,0,0,0,0,0,0,0.0313,0.0279,0.0279,0.0301,0.0303,0.0345,0.0347,0.0349,0.0389,0.0388,0.0388,0.0387,0.0386,0.0387,0.0388,0.0409,0,0,0.039,0.039,0,0,0,0,0,0,0,0,0.0311,0.0314,0.0298,0.03,0.0302,0.0351,0.0346,0.0363,0.0389,0.0365,0.0387,0.0386,0.0364,0.0366,0.0393,0.0409,0.0408,0.039,0.039,0.0391,0.0391,0,0,0,0,0,0,0,0.0308,0.0312,0.0314,0.0298,0.03,0.0339,0.0343,0.0351,0.0373,0.0367,0.0368,0.0363,0.0365,0.0393,0.0393,0.0408,0.039,0.0391,0.0391,0.0391,0.0405,0.0405,0,0,0,0,0,0,0.028,0.0309,0.0311,0.0315,0.0295,0.0339,0.0344,0.0343,0.0375,0.0377,0.0364,0.0365,0.0392,0.0392,0.0393,0.0386,0.0391,0.0391,0.0392,0.0405,0.0405,0.0405,0,0,0,0,0,0,0.028,0.028,0.0308,0.0307,0.0312,0.0338,0.0338,0.0344,0.0358,0.0371,0.0374,0.0367,0.0391,0.0392,0.0395,0.0387,0.0392,0.0392,0.0405,0.0405,0.0405,0.0393,0,0,0,0,0,0,0.028,0.028,0.0278,0.0305,0.0311,0.033,0.0338,0.0346,0.0352,0.0354,0.0375,0.0375,0.0391,0.0394,0.0396,0.0388,0.0393,0.0406,0.0405,0.0405,0.0394,0.0393,0.0392,0,0,0,0,0,0.028,0.0282,0.0278,0.0278,0.0305,0.033,0.0338,0.0359,0.0353,0.0367,0.0375,0.0374,0.0394,0.0395,0.0397,0.039,0.0406,0.0405,0.0405,0.0394,0.0393,0.0392,0,0,0,0,0,0,0.0276,0.0286,0.0283,0.0285,0.03,0.0333,0.0343,0.0351,0.0373,0.0363,0.0378,0.038,0.0378,0.0386,0.0387,0.0393,0.0397,0.0398,0.0388,0.0387,0.0386,0.0382,0.0394,0,0,0,0,0,0.0272,0.0279,0.0289,0.0289,0.0293,0.0314,0.0325,0.0333,0.0349,0.0358,0.0373,0.0379,0.0384,0.0386,0.0396,0.0402,0.0405,0.0397,0.0396,0.0395,0.0393,0.0393,0.0391,0.0405,0.0405,0.0405,0,0,0.0267,0.0272,0.0275,0.0289,0.0302,0.0317,0.0321,0.0328,0.0339,0.0351,0.0372,0.0374,0.0384,0.0393,0.0392,0.0396,0.0393,0.0395,0.0394,0.0392,0.0392,0.0391,0.039,0.0405,0.0405,0.0405,0,0,0.026,0.0265,0.0267,0.0284,0.029,0.0309,0.0303,0.0327,0.0336,0.035,0.0356,0.0357,0.0374,0.0386,0.039,0.0388,0.0386,0.0382,0.0377,0.0377,0.0376,0.0375,0.0379,0.0378,0.0385,0.0385,0.0385,0,0.0246,0.0254,0.0272,0.0281,0.0289,0.03,0.0303,0.0326,0.0348,0.0349,0.0349,0.0368,0.0374,0.0381,0.038,0.0386,0.0383,0.0381,0.0376,0.0375,0.0374,0.0378,0.0377,0.0384,0.0384,0.0384,0.0384,0,0.0246,0.0253,0.0255,0.0273,0.0291,0.0294,0.0314,0.0329,0.0331,0.0345,0.0346,0.0363,0.0369,0.0371,0.0375,0.037,0.0369,0.0372,0.0378,0.0372,0.0377,0.0376,0.0383,0.0384,0.0384,0.0384,0,0,0.0199,0.0243,0.0241,0.0245,0.0281,0.0287,0.0311,0.0328,0.0328,0.0348,0.0351,0.0361,0.0356,0.036,0.0363,0.0367,0.0359,0.0362,0.0362,0.0364,0.0356,0.035,0.0349,0.0355,0.0355,0.0355,0.0362,0,0.0182,0.0191,0.0227,0.0237,0.0239,0.0274,0.0296,0.0314,0.0331,0.0344,0.0351,0.035,0.0356,0.0345,0.0351,0.0355,0.0357,0.0357,0.0362,0.0363,0.0357,0.0348,0.0317,0.0319,0.0362,0.0362,0.0362,0,0.0157,0.017,0.017,0.0204,0.0207,0.0219,0.0241,0.0262,0.0295,0.0303,0.0314,0.0325,0.0331,0.0332,0.0344,0.0339,0.0341,0.035,0.035,0.0347,0.0356,0.0332,0.0317,0.0361,0.0361,0.0361,0.0361,0,0.009,0.0124,0.0118,0.0131,0.0177,0.0176,0.0195,0.0232,0.0238,0.0265,0.0268,0.0293,0.0287,0.0303,0.0328,0.0324,0.0346,0.0345,0.0347,0.0347,0.0324,0.0322,0.0348,0.0348,0.0348,0.0348,0.0348,0,0.0044,0.004,0.008,0.0073,0.0064,0.0113,0.0102,0.0134,0.0165,0.0173,0.0223,0.0235,0.0274,0.0301,0.0323,0.0338,0.0341,0.0342,0.0346,0.0319,0.0317,0.0356,0.0357,0.0348,0.0348,0.0348,0.0348,0,-0.0038,-0.0007,-0.001,0.0023,0.0026,0.0012,0.0034,0.0036,0.0074,0.0089,0.0092,0.0169,0.0211,0.0267,0.0303,0.0319,0.0345,0.0349,0.032,0.032,0.0346,0.0346,0.0341,0.0341,0.034,0.034,0.034,0,-0.0077,-0.0094,-0.0071,-0.0078,-0.0072,-0.008,-0.008,-0.0031,-0.0016,0.0055,0.0062,0.0117,0.0194,0.0261,0.0283,0.0328,0.0342,0.0312,0.0299,0.034,0.0344,0.0345,0.0345,0.0266,0.0265,0.0264,0.0264,0,-0.0164,-0.0161,-0.0164,-0.0171,-0.0178,-0.0171,-0.0163,-0.0153,-0.008,-0.0024,0.007,0.0145,0.0201,0.0254,0.0292,0.0307,0.0304,0.03,0.0348,0.0273,0.027,0.0274,0.0277,0.0258,0.0259,0.0259,0.026,0.026,-0.0233,-0.0257,-0.0261,-0.0261,-0.0264,-0.0244,-0.0229,-0.0183,-0.0119,-0.0016,0.0068,0.0189,0.0183,0.0248,0.0265,0.0264,0.0272,0.0264,0.0266,0.0268,0.0258,0.0255,0.024,0.024,0.0241,0.0241,0.0241,0,-0.0319,-0.0333,-0.0347,-0.0334,-0.0333,-0.0315,-0.0266,-0.0225,-0.0125,-0.003,0.009,0.0146,0.0216,0.0225,0.0216,0.022,0.0217,0.0216,0.0208,0.0213,0.0217,0.0205,0.0172,0.0172,0.0172,0.0172,0,0,-0.0369,-0.0411,-0.0401,-0.0398,-0.0386,-0.0357,-0.0317,-0.0238,-0.0157,-0.0036,0.0056,0.0154,0.0192,0.0161,0.0156,0.0169,0.0187,0.0163,0.0213,0.0204,0.0208,0.0233,0.0219,0,0,0,0,0]}],[{"header":{"parameterUnit":"m.s-1","parameterCategory":2,"la1":30.2991,"la2":30.254,"lo1":-89.0895,"lo2":-89.0444,"dy":0.0017,"dx":0.0017,"nx":28,"ny":28,"refTime":"2024-06-14T21:00:00:Z","depth":"4","parameterNumber":2,"parameterNumberName":"U-component_of_CURRENTS"},"data":[0,0,0,0,0,0,0,0,0,0,0,0,0,0,0,0,0,0,0,0,0,0,0,0,0,0,0,0,0,0,0,0,0,0,0,0,0,0,0,0,0,0,0,0,0,0,0,0,0,0,0,0,0,0,0,0,0,0,-0.0234,-0.0235,0,-0.0275,-0.0275,-0.0276,-0.0351,-0.0353,-0.0355,-0.0356,-0.055,-0.0553,-0.0557,0,0,0,0,0,0,0,0,0,0,0,0,0,-0.0212,-0.0212,-0.0234,-0.0235,-0.0235,-0.0275,-0.0275,-0.0276,-0.0351,-0.0353,-0.0355,-0.0357,-0.0549,-0.0553,-0.0557,0,0,0,0,0,0,0,0,0,0,0,0,0,-0.0232,-0.0212,-0.0234,-0.028,-0.0284,-0.0275,-0.0275,-0.0276,-0.0351,-0.0353,-0.0356,-0.0358,-0.0547,-0.0552,-0.0558,-0.054,0,0,-0.0574,-0.0576,0,0,0,0,0,0,0,0,-0.023,-0.0232,-0.0272,-0.0276,-0.0282,-0.0313,-0.0339,-0.0373,-0.035,-0.0323,-0.0356,-0.0359,-0.0484,-0.0495,-0.0491,-0.0549,-0.0558,-0.0575,-0.0578,-0.058,-0.0582,0,0,0,0,0,0,0,-0.0229,-0.0231,-0.0248,-0.0273,-0.0279,-0.0295,-0.0301,-0.0345,-0.039,-0.0325,-0.0332,-0.0339,-0.0488,-0.0486,-0.0497,-0.056,-0.0574,-0.0579,-0.0582,-0.0585,-0.0777,-0.0779,0,0,0,0,0,0,-0.0226,-0.0229,-0.0246,-0.0249,-0.0265,-0.0294,-0.03,-0.0298,-0.0386,-0.0402,-0.0337,-0.0343,-0.0475,-0.0491,-0.0504,-0.0649,-0.058,-0.0585,-0.0588,-0.0775,-0.0778,-0.078,0,0,0,0,0,0,-0.0225,-0.0227,-0.0245,-0.0243,-0.0247,-0.0292,-0.0289,-0.0298,-0.0351,-0.0394,-0.0412,-0.0388,-0.0478,-0.0497,-0.0614,-0.0652,-0.0588,-0.0592,-0.0773,-0.0776,-0.0779,-0.0838,0,0,0,0,0,0,-0.0224,-0.0226,-0.0239,-0.0242,-0.0247,-0.0268,-0.0287,-0.0297,-0.0349,-0.0359,-0.0443,-0.046,-0.0481,-0.0606,-0.062,-0.0658,-0.0597,-0.0771,-0.0774,-0.0778,-0.0833,-0.0842,-0.085,0,0,0,0,0,-0.0223,-0.0226,-0.0238,-0.0242,-0.0257,-0.0269,-0.0273,-0.0311,-0.035,-0.037,-0.0457,-0.046,-0.0637,-0.0613,-0.0628,-0.0669,-0.0769,-0.0773,-0.0777,-0.083,-0.084,-0.085,0,0,0,0,0,0,-0.0231,-0.0234,-0.0248,-0.0255,-0.0275,-0.0284,-0.0311,-0.0337,-0.0413,-0.0458,-0.0499,-0.0522,-0.0639,-0.0644,-0.0617,-0.0733,-0.0697,-0.0705,-0.0732,-0.0742,-0.075,-0.0704,-0.0601,0,0,0,0,0,-0.0233,-0.024,-0.0247,-0.0262,-0.0274,-0.0302,-0.0321,-0.0356,-0.0412,-0.0449,-0.0516,-0.0588,-0.0653,-0.0695,-0.0756,-0.082,-0.0785,-0.085,-0.0859,-0.0865,-0.0838,-0.0855,-0.0862,-0.0794,-0.0794,-0.0794,0,0,-0.0246,-0.0247,-0.0256,-0.0265,-0.0288,-0.0308,-0.0322,-0.0374,-0.0415,-0.0461,-0.0572,-0.0638,-0.0683,-0.0769,-0.0817,-0.0787,-0.0863,-0.0871,-0.0877,-0.0845,-0.086,-0.0866,-0.0872,-0.0797,-0.0796,-0.0796,0,0,-0.026,-0.0274,-0.0283,-0.0301,-0.0343,-0.0353,-0.038,-0.043,-0.0481,-0.0574,-0.0631,-0.0726,-0.0813,-0.0854,-0.0879,-0.0964,-0.0921,-0.0984,-0.0977,-0.0996,-0.1001,-0.1004,-0.0945,-0.0943,-0.0972,-0.0972,-0.0972,0,-0.028,-0.0283,-0.0292,-0.0309,-0.0334,-0.0378,-0.0408,-0.0449,-0.0545,-0.0588,-0.0627,-0.0783,-0.0843,-0.0919,-0.0949,-0.0983,-0.0953,-0.0939,-0.1004,-0.1007,-0.101,-0.0949,-0.0946,-0.0975,-0.0975,-0.0974,-0.0974,0,-0.0292,-0.0313,-0.0327,-0.0354,-0.038,-0.042,-0.0468,-0.0536,-0.0608,-0.0643,-0.077,-0.0857,-0.0927,-0.0972,-0.0985,-0.1041,-0.0998,-0.1027,-0.0972,-0.102,-0.0952,-0.0948,-0.098,-0.0979,-0.0978,-0.0977,0,0,-0.0289,-0.0325,-0.0335,-0.0358,-0.0415,-0.0435,-0.0513,-0.0567,-0.0618,-0.0728,-0.0784,-0.0914,-0.0952,-0.0981,-0.1031,-0.1046,-0.1051,-0.1033,-0.1033,-0.0959,-0.1026,-0.0905,-0.0887,-0.1094,-0.1094,-0.1094,-0.0961,0,-0.0302,-0.0323,-0.0347,-0.04,-0.0419,-0.0484,-0.0537,-0.0608,-0.0672,-0.0741,-0.0832,-0.0906,-0.0954,-0.0996,-0.1029,-0.106,-0.1046,-0.1079,-0.1001,-0.0997,-0.0874,-0.0882,-0.1096,-0.0957,-0.0956,-0.0955,-0.0955,0,-0.0306,-0.0315,-0.0355,-0.0413,-0.0432,-0.0477,-0.0562,-0.0617,-0.0703,-0.0755,-0.0832,-0.0885,-0.0945,-0.0979,-0.1012,-0.1029,-0.1014,-0.1023,-0.1019,-0.0874,-0.0869,-0.0907,-0.0947,-0.0947,-0.0948,-0.0948,-0.0949,0,-0.0278,-0.0327,-0.0356,-0.038,-0.0449,-0.0501,-0.0546,-0.063,-0.0672,-0.0748,-0.0767,-0.0857,-0.0884,-0.0922,-0.0904,-0.0971,-0.0884,-0.0989,-0.0851,-0.084,-0.0962,-0.0959,-0.0978,-0.0978,-0.0978,-0.0978,-0.0979,0,-0.0268,-0.0297,-0.0351,-0.0372,-0.0422,-0.0484,-0.055,-0.0604,-0.0671,-0.0687,-0.0764,-0.0747,-0.0871,-0.0832,-0.0857,-0.0785,-0.0837,-0.0818,-0.0803,-0.0987,-0.0989,-0.0956,-0.0955,-0.0973,-0.0975,-0.0976,-0.0976,0,-0.0239,-0.0275,-0.0312,-0.0385,-0.0412,-0.0452,-0.0533,-0.0567,-0.0624,-0.0641,-0.0652,-0.066,-0.0611,-0.0653,-0.066,-0.0685,-0.0656,-0.06,-0.0688,-0.0685,-0.0621,-0.0626,-0.051,-0.0505,-0.0501,-0.0497,-0.0494,0,-0.0223,-0.024,-0.0309,-0.0328,-0.037,-0.043,-0.0468,-0.0543,-0.0556,-0.0546,-0.0525,-0.0475,-0.0477,-0.0345,-0.0415,-0.0417,-0.0435,-0.0409,-0.0634,-0.0578,-0.0576,-0.0588,-0.0598,-0.0487,-0.0485,-0.0484,-0.0483,0,-0.0194,-0.0231,-0.0258,-0.0288,-0.0334,-0.036,-0.0405,-0.0398,-0.0453,-0.0507,-0.038,-0.0346,-0.0258,-0.0259,-0.0209,-0.023,-0.0454,-0.0366,-0.0381,-0.0593,-0.0549,-0.0553,-0.0568,-0.0468,-0.047,-0.0471,-0.0472,0,-0.018,-0.0186,-0.0222,-0.0253,-0.0278,-0.0262,-0.0301,-0.029,-0.0305,-0.0322,-0.0237,-0.0187,-0.019,-0.0145,-0.009,-0.0104,-0.0206,-0.0284,-0.0306,-0.0323,-0.0337,-0.0259,-0.0045,0,0,0,0,0,-0.0151,-0.0156,-0.0178,-0.0191,-0.02,-0.0214,-0.0243,-0.0278,-0.0317,-0.0223,-0.0248,-0.0156,-0.01,-0.0041,-0.004,-0.007,-0.0221,-0.0072,-0.0326,-0.0381,-0.0399,-0.0441,0,0,0,0,0,0,-0.0131,-0.0147,-0.0163,-0.0125,-0.0114,-0.0114,-0.0123,-0.0151,-0.0103,-0.014,-0.0084,-0.0153,-0.0077,-0.0088,-0.0028,-0.0034,-0.0197,-0.0074,-0.0074,-0.0371,-0.0388,-0.0402,-0.0451,0,0,0,0,0]},{"header":{"parameterUnit":"m.s-1","parameterCategory":2,"la1":30.2991,"la2":30.254,"lo1":-89.0895,"lo2":-89.0444,"dy":0.0017,"dx":0.0017,"nx":28,"ny":28,"refTime":"2024-06-14T21:00:00:Z","depth":"4","parameterNumber":3,"parameterNumberName":"V-component_of_CURRENTS"},"data":[0,0,0,0,0,0,0,0,0,0,0,0,0,0,0,0,0,0,0,0,0,0,0,0,0,0,0,0,0,0,0,0,0,0,0,0,0,0,0,0,0,0,0,0,0,0,0,0,0,0,0,0,0,0,0,0,0,0,-0.0429,-0.043,0,-0.0465,-0.0465,-0.0465,-0.0466,-0.0466,-0.0466,-0.0466,-0.0492,-0.0493,-0.0494,0,0,0,0,0,0,0,0,0,0,0,0,0,-0.0346,-0.0347,-0.0429,-0.043,-0.0431,-0.0465,-0.0465,-0.0465,-0.0466,-0.0466,-0.0466,-0.0466,-0.0492,-0.0493,-0.0494,0,0,0,0,0,0,0,0,0,0,0,0,0,-0.0378,-0.0348,-0.0429,-0.0438,-0.0439,-0.0465,-0.0465,-0.0465,-0.0466,-0.0466,-0.0466,-0.0466,-0.0492,-0.0493,-0.0494,-0.0504,0,0,-0.0497,-0.0498,0,0,0,0,0,0,0,0,-0.0376,-0.0381,-0.0436,-0.0437,-0.0439,-0.0464,-0.0445,-0.0479,-0.0466,-0.0452,-0.0466,-0.0466,-0.0484,-0.0486,-0.0488,-0.0505,-0.0506,-0.0498,-0.0498,-0.0499,-0.0499,0,0,0,0,0,0,0,-0.0374,-0.0379,-0.0439,-0.0437,-0.0439,-0.0435,-0.0439,-0.0451,-0.0466,-0.0453,-0.0454,-0.0464,-0.0485,-0.0487,-0.0489,-0.0507,-0.0498,-0.0499,-0.0499,-0.05,-0.0544,-0.0545,0,0,0,0,0,0,-0.0379,-0.0377,-0.0438,-0.0441,-0.0411,-0.0437,-0.0442,-0.0453,-0.0466,-0.0469,-0.0464,-0.0464,-0.0485,-0.0487,-0.049,-0.0484,-0.0499,-0.05,-0.0501,-0.0544,-0.0544,-0.0545,0,0,0,0,0,0,-0.0377,-0.0384,-0.0437,-0.0413,-0.042,-0.0439,-0.0452,-0.0454,-0.0469,-0.0475,-0.0477,-0.0479,-0.0485,-0.0488,-0.0522,-0.0486,-0.05,-0.0501,-0.0543,-0.0544,-0.0544,-0.0485,0,0,0,0,0,0,-0.0374,-0.0383,-0.0401,-0.0413,-0.0421,-0.0467,-0.0453,-0.0455,-0.0476,-0.0476,-0.0488,-0.0489,-0.0485,-0.0521,-0.0523,-0.0488,-0.0502,-0.0542,-0.0543,-0.0544,-0.0486,-0.0483,-0.0481,0,0,0,0,0,-0.0371,-0.0392,-0.0401,-0.0409,-0.0443,-0.0469,-0.0473,-0.0483,-0.0477,-0.0493,-0.0504,-0.0489,-0.0527,-0.0523,-0.0526,-0.0489,-0.0542,-0.0543,-0.0544,-0.0487,-0.0484,-0.0481,0,0,0,0,0,0,-0.0363,-0.0395,-0.0405,-0.0435,-0.0459,-0.0471,-0.0489,-0.0492,-0.0511,-0.0514,-0.051,-0.0514,-0.0525,-0.0534,-0.0529,-0.0509,-0.0526,-0.0528,-0.0482,-0.0479,-0.0476,-0.0478,-0.0503,0,0,0,0,0,-0.0372,-0.0399,-0.0424,-0.0452,-0.0465,-0.0479,-0.0493,-0.0501,-0.0517,-0.0525,-0.0526,-0.053,-0.053,-0.0529,-0.0541,-0.0539,-0.0547,-0.0517,-0.0514,-0.0511,-0.0518,-0.0494,-0.0489,-0.0548,-0.0548,-0.0548,0,0,-0.0378,-0.04,-0.0416,-0.0453,-0.047,-0.0499,-0.0487,-0.0515,-0.0535,-0.0525,-0.0548,-0.0533,-0.0535,-0.0527,-0.053,-0.0528,-0.0504,-0.0513,-0.051,-0.0519,-0.0495,-0.0489,-0.0483,-0.0549,-0.0549,-0.0549,0,0,-0.0395,-0.0422,-0.0448,-0.0476,-0.0512,-0.0522,-0.0534,-0.055,-0.0555,-0.0573,-0.0562,-0.0548,-0.0545,-0.0535,-0.0528,-0.0531,-0.05,-0.0505,-0.0475,-0.045,-0.0445,-0.0439,-0.0453,-0.045,-0.0489,-0.0489,-0.0489,0,-0.0401,-0.0439,-0.046,-0.0493,-0.052,-0.0535,-0.0566,-0.058,-0.0601,-0.0599,-0.0582,-0.0555,-0.0554,-0.0535,-0.0508,-0.0522,-0.0501,-0.0476,-0.0443,-0.0438,-0.0434,-0.0449,-0.0446,-0.0486,-0.0486,-0.0487,-0.0487,0,-0.0433,-0.0474,-0.0493,-0.0542,-0.0571,-0.0603,-0.0628,-0.0644,-0.0634,-0.0627,-0.0606,-0.0584,-0.0552,-0.0533,-0.0508,-0.0461,-0.0455,-0.0448,-0.0441,-0.0424,-0.0442,-0.044,-0.0482,-0.0483,-0.0484,-0.0485,0,0,-0.0415,-0.0497,-0.0508,-0.0541,-0.06,-0.0623,-0.0661,-0.0684,-0.0688,-0.0668,-0.0648,-0.0606,-0.0546,-0.0537,-0.049,-0.0451,-0.0394,-0.0404,-0.0404,-0.0402,-0.0337,-0.032,-0.0316,-0.0341,-0.034,-0.034,-0.0365,0,-0.0433,-0.0499,-0.0538,-0.0605,-0.0638,-0.0675,-0.0703,-0.0725,-0.0713,-0.0698,-0.0654,-0.0609,-0.0561,-0.0495,-0.0454,-0.0409,-0.0381,-0.0389,-0.037,-0.0371,-0.0343,-0.0311,-0.0337,-0.0363,-0.0363,-0.0363,-0.0362,0,-0.0451,-0.0493,-0.0557,-0.0629,-0.0646,-0.0679,-0.0713,-0.0734,-0.0728,-0.0702,-0.0644,-0.0598,-0.053,-0.0485,-0.0414,-0.0398,-0.0357,-0.0336,-0.0336,-0.034,-0.0348,-0.0385,-0.0358,-0.0359,-0.0359,-0.0359,-0.036,0,-0.0422,-0.0509,-0.0559,-0.059,-0.0667,-0.0686,-0.0702,-0.0718,-0.0721,-0.067,-0.0639,-0.0577,-0.0515,-0.0457,-0.04,-0.0369,-0.0348,-0.0321,-0.0296,-0.0297,-0.0332,-0.0337,-0.0286,-0.0286,-0.0286,-0.0286,-0.0286,0,-0.0423,-0.0471,-0.0545,-0.0576,-0.0615,-0.0655,-0.0672,-0.0678,-0.0666,-0.066,-0.0601,-0.0561,-0.0485,-0.0463,-0.0413,-0.0356,-0.0364,-0.0292,-0.029,-0.0311,-0.0314,-0.0331,-0.0336,-0.0287,-0.0287,-0.0287,-0.0287,0,-0.0394,-0.0454,-0.052,-0.0592,-0.0609,-0.0623,-0.0653,-0.066,-0.0632,-0.0617,-0.0584,-0.0532,-0.047,-0.0463,-0.0398,-0.0371,-0.0334,-0.0324,-0.0389,-0.0391,-0.0296,-0.0298,-0.0269,-0.0268,-0.0268,-0.0267,-0.0267,0,-0.0391,-0.0419,-0.0516,-0.0549,-0.0581,-0.0603,-0.0625,-0.0628,-0.0625,-0.0598,-0.0585,-0.0524,-0.049,-0.0414,-0.0387,-0.0351,-0.0333,-0.0337,-0.0263,-0.0287,-0.0289,-0.0291,-0.0294,-0.0266,-0.0266,-0.0266,-0.0265,0,-0.0373,-0.0415,-0.0466,-0.0519,-0.056,-0.0603,-0.0615,-0.0594,-0.0597,-0.0609,-0.0537,-0.048,-0.0439,-0.0373,-0.0371,-0.0337,-0.0337,-0.033,-0.0329,-0.0259,-0.0284,-0.0286,-0.0289,-0.0263,-0.0264,-0.0264,-0.0264,0,-0.0363,-0.0383,-0.0443,-0.049,-0.0546,-0.0562,-0.0576,-0.0564,-0.0554,-0.0526,-0.0508,-0.0455,-0.0442,-0.0368,-0.0361,-0.0334,-0.0286,-0.026,-0.0262,-0.0264,-0.0244,-0.0273,-0.0242,0,0,0,0,0,-0.0339,-0.0356,-0.0403,-0.0451,-0.0504,-0.0536,-0.0567,-0.0575,-0.0579,-0.0524,-0.0505,-0.046,-0.0383,-0.0347,-0.0305,-0.0338,-0.0295,-0.0287,-0.0268,-0.0252,-0.0255,-0.0229,0,0,0,0,0,0,-0.0328,-0.0363,-0.0386,-0.0409,-0.0432,-0.0479,-0.0498,-0.0509,-0.0465,-0.0466,-0.0417,-0.044,-0.0365,-0.0403,-0.0297,-0.0293,-0.0271,-0.0274,-0.0273,-0.0251,-0.0253,-0.0255,-0.0229,0,0,0,0,0]}]]